QIANFAN-98 (66040 NORAD) Tracking and Keplerian Element Data

This shows tracking and keplerian element data for the satellite.

Feedback or suggestion? Click here.




ElementValue
Catalog66040
NameQIANFAN-98
Epoch Orbit903
Epoch Day354.11162026
Epoch Year2025
RAAN61.2949
Inclination88.9953
Eccentricity0.001567
Argument of Perigee25.0754
Mean Anonmoly335.1177
Mean Motion13.90773445
Decay Rate6E-07
L11 66040U 25233H 25354.11162026 .00000060 00000+0 37362-4 0 9999
L22 66040 88.9953 61.2949 0015670 25.0754 335.1177 13.90773445 9035



Live tracking and technical data element details for QIANFAN-98 (NORAD 66040). QIANFAN-98 can be tracked NOW for your location showing map with azimuth and elevation plus other details from your city location.







IsCatalogInMostPopularTable: catalog: 66040, numindb: 3
Update: records affected: 1



GetName: 66040 QIANFAN-98

Hit Count: updated at: Sat, 11 Apr 2026 21:22:58 GMT